sat.trackr.live / text

‹ back to catalog

CBERS 4

NORAD 40336 · 2014-079A

PAYLOAD ACTIVE UNKNOWN

§ Identity

Operator
Country
CHBZ
Launch date
2014-12-07
Launch site
TAISC
Launch vehicle
Mass (kg)
RCS (m²)
3.78

Purposes: earth_obs

External: N2YO · Heavens-Above · Gunter

§ Orbital elements

Epoch: 2026-09-20T04:18:53.708256Z

Period
100.31 min
Inclination
98.3434°
Eccentricity
0.0002000
Mean motion
14.35514770 rev/d
Perigee alt
771.9 km
Apogee alt
774.8 km
Semi-major
7,151.5 km
B*
4.5207e-5
RAAN
316.9840°
Arg perigee
91.9138°
Mean anomaly
268.2277°
Rev number
61,758

§ Raw data

CBERS 41 40336U 14079A   26263.17978829  .00000088  00000+0  45207-4 0  99942 40336  98.3434 316.9840 0002000  91.9138 268.2277 14.35514770617581

JSON: /api/v1/satellites/40336 · /tle

For live sub-satellite position, see the globe view (requires WebGL).

§ Visibility from observer

Set your observer location to see the next 7 days of passes ≥ 10°. The values pass through the URL so the page stays shareable.

No JS? Fill the form by hand. The geolocation button needs JavaScript.

§ Radio — SatNOGS DB

ModeDescriptionDownlinkUplink
FM S-band telemetry 2.217 GHz

1 transmitter · refreshed weekly from db.satnogs.org